N752OC KCPU-KTVL

Flight info

Callsign N752OC
Flight time N/A
Altitude 11000
Route KATSO
Aircraft BE58/L-VGDW/C

Departure

Time 2026-05-08 07:23
Airport Calaveras Co Maury Rasmussen Field (KCPU)

Arrival

Time N/A
Airport Lake Tahoe Airport (KTVL)
Time Latitude Longitude Altitude Speed Heading
2026-05-08 07:14 38.14629 -120.64706 1308 ft 0 kts 237°
2026-05-08 07:18 38.14632 -120.64725 1309 ft 6 kts 317°
2026-05-08 07:18 38.14671 -120.64761 1308 ft 0 kts 324°
2026-05-08 07:19 38.14673 -120.64762 1308 ft 3 kts 326°
2026-05-08 07:19 38.14704 -120.64803 1308 ft 9 kts 324°
2026-05-08 07:19 38.14775 -120.64865 1307 ft 14 kts 325°
2026-05-08 07:20 38.14856 -120.64934 1305 ft 7 kts 326°
2026-05-08 07:20 38.14866 -120.64974 1305 ft 5 kts 310°
2026-05-08 07:20 38.14928 -120.65025 1304 ft 18 kts 324°
2026-05-08 07:20 38.15008 -120.65094 1302 ft 6 kts 322°
2026-05-08 07:21 38.15012 -120.65098 1302 ft 0 kts 304°
2026-05-08 07:21 38.15018 -120.65142 1302 ft 8 kts 271°
2026-05-08 07:21 38.14997 -120.65148 1302 ft 0 kts 147°
2026-05-08 07:22 38.14798 -120.64977 1306 ft 70 kts 147°
2026-05-08 07:22 38.14296 -120.64550 1379 ft 99 kts 146°
2026-05-08 07:23 38.13764 -120.64043 1777 ft 101 kts 142°
2026-05-08 07:23 38.13144 -120.63447 2003 ft 121 kts 140°
2026-05-08 07:23 38.12801 -120.62472 2305 ft 128 kts 83°
2026-05-08 07:23 38.13060 -120.61803 2538 ft 130 kts 44°
2026-05-08 07:24 38.14197 -120.61621 2947 ft 138 kts 345°
2026-05-08 07:24 38.15052 -120.62131 3374 ft 133 kts 331°
2026-05-08 07:24 38.15886 -120.62753 3590 ft 146 kts 332°
2026-05-08 07:24 38.16759 -120.63430 3899 ft 149 kts 332°
2026-05-08 07:25 38.17689 -120.64009 4259 ft 147 kts 341°
2026-05-08 07:25 38.18684 -120.64317 4625 ft 146 kts 352°
2026-05-08 07:25 38.20657 -120.64465 5494 ft 130 kts 360°
2026-05-08 07:26 38.21462 -120.64459 6079 ft 111 kts
2026-05-08 07:26 38.22242 -120.64438 6345 ft 117 kts
2026-05-08 07:26 38.23068 -120.64408 6650 ft 120 kts
2026-05-08 07:26 38.23904 -120.64375 6941 ft 120 kts
2026-05-08 07:27 38.24737 -120.64339 7235 ft 122 kts
2026-05-08 07:27 38.25588 -120.64300 7532 ft 123 kts
2026-05-08 07:27 38.26440 -120.64261 7828 ft 123 kts
2026-05-08 07:27 38.27294 -120.64221 8121 ft 123 kts
2026-05-08 07:28 38.28146 -120.64181 8410 ft 123 kts
2026-05-08 07:28 38.29005 -120.64140 8695 ft 122 kts
2026-05-08 07:28 38.29846 -120.64101 8967 ft 120 kts
2026-05-08 07:28 38.30671 -120.64062 9232 ft 118 kts
2026-05-08 07:29 38.31500 -120.64023 9390 ft 127 kts
2026-05-08 07:29 38.32413 -120.63980 9525 ft 131 kts
2026-05-08 07:29 38.33235 -120.63940 9934 ft 113 kts
2026-05-08 07:29 38.34042 -120.63903 10115 ft 116 kts
2026-05-08 07:30 38.34843 -120.63847 10315 ft 118 kts 11°
2026-05-08 07:30 38.35558 -120.63332 10503 ft 120 kts 36°
2026-05-08 07:30 38.36191 -120.62635 10697 ft 120 kts 40°
2026-05-08 07:30 38.36812 -120.61923 10878 ft 120 kts 40°
2026-05-08 07:31 38.37455 -120.61178 10882 ft 133 kts 40°
2026-05-08 07:31 38.38171 -120.60340 10903 ft 143 kts 40°
2026-05-08 07:31 38.38927 -120.59456 10911 ft 153 kts 41°
2026-05-08 07:31 38.39744 -120.58496 10913 ft 162 kts 41°
2026-05-08 07:32 38.40594 -120.57496 10929 ft 170 kts 40°
2026-05-08 07:32 38.41486 -120.56448 10939 ft 179 kts 41°
2026-05-08 07:32 38.42420 -120.55348 10937 ft 187 kts 40°
2026-05-08 07:32 38.43389 -120.54209 10937 ft 192 kts 41°
2026-05-08 07:33 38.44388 -120.53031 10930 ft 196 kts 41°
2026-05-08 07:33 38.45385 -120.51856 10942 ft 197 kts 40°
2026-05-08 07:33 38.46401 -120.50660 10949 ft 195 kts 41°
2026-05-08 07:33 38.47350 -120.49538 10950 ft 179 kts 40°
2026-05-08 07:34 38.48258 -120.48467 10970 ft 180 kts 41°
2026-05-08 07:34 38.49204 -120.47352 10981 ft 185 kts 41°
2026-05-08 07:34 38.50156 -120.46227 10982 ft 186 kts 41°
2026-05-08 07:34 38.51101 -120.45111 10983 ft 185 kts 41°
2026-05-08 07:35 38.52044 -120.43996 10987 ft 185 kts 41°
2026-05-08 07:35 38.52994 -120.42874 10991 ft 185 kts 41°
2026-05-08 07:35 38.53931 -120.41766 10993 ft 185 kts 40°
2026-05-08 07:35 38.54881 -120.40642 10992 ft 185 kts 41°
2026-05-08 07:36 38.55821 -120.39531 10993 ft 185 kts 40°
2026-05-08 07:36 38.56765 -120.38412 10995 ft 184 kts 40°
2026-05-08 07:36 38.57704 -120.37301 11002 ft 184 kts 40°
2026-05-08 07:36 38.58644 -120.36191 11008 ft 184 kts 40°
2026-05-08 07:37 38.59587 -120.35075 11009 ft 185 kts 40°
2026-05-08 07:37 38.60534 -120.33952 11007 ft 185 kts 40°
2026-05-08 07:37 38.61473 -120.32839 11011 ft 185 kts 41°
2026-05-08 07:37 38.62427 -120.31707 11010 ft 185 kts 41°
2026-05-08 07:38 38.63372 -120.30586 11012 ft 185 kts 41°
2026-05-08 07:38 38.64318 -120.29463 11017 ft 185 kts 41°
2026-05-08 07:38 38.65254 -120.28352 11019 ft 185 kts 41°
2026-05-08 07:38 38.66207 -120.27218 11022 ft 185 kts 41°
2026-05-08 07:39 38.67147 -120.26102 11026 ft 185 kts 41°
2026-05-08 07:39 38.68097 -120.24972 11031 ft 186 kts 41°
2026-05-08 07:39 38.69044 -120.23845 11037 ft 186 kts 41°
2026-05-08 07:39 38.69996 -120.22713 11043 ft 186 kts 41°
2026-05-08 07:40 38.70941 -120.21588 11048 ft 186 kts 41°
2026-05-08 07:40 38.71160 -120.21327 11048 ft 186 kts 41°